Погода в Кроули

Великобритания     51°07′06″N   0°11′05″E
темп.,
°C
ветер,
м/с
пор.,
м/с
влажн.,
%
обл.,
%
осадки,
мм/ч
давл.,
гПа
погр.,
м
15 мая, сб
сб1501:00+7ююв2296100 0.0 100628
04:00+8ююв3797100 0.2 1004228
07:00+8ююз4892100 0.9 1003649
10:00+8юв5896100 0.4 1001569
13:00+13зюз567996 0.9 10001158
16:00+11зюз6118899 1.2 1001749
19:00+11юз6108829 1.4 1000710
22:00+8юз512958 0.1 1001383
16 мая, вс
вс1601:00+7юз4119713 0.4 1001306
04:00+6юз239542 0.1 100053
07:00+9юз389427 0.1 1000393
10:00+12юз687279 0.1 10001152
13:00+11ююз798099 0.5 1000822
16:00+12юз8107995 0.8 9981146
19:00+11юз6109494 2.6 998717
22:00+10юз5896100 1.0 997391
17 мая, пн
пн1701:00+9з51196100 1.6 999411
04:00+8зюз4109866 0.1 1000329
07:00+8з38955 0.1 1002268
10:00+13з467412 0.0 1003932
13:00+14юз5682100 2.4 1004788
16:00+12зюз5888100 4.3 1004415
19:00+12зсз5988100 6.4 1005672
22:00+8зсз3894100 1.6 1008201
18 мая, вт
вт1801:00+6з3495100 1.6 100983
04:00+4зюз349511 0.0 101074
07:00+7зюз4119411 0.0 1011379
10:00+12з79636 0.0 10121311
13:00+12з687149 0.3 10131251
16:00+14з7106117 0.8 10131972
19:00+12з611695 0.9 10151003
22:00+7з412855 0.0 1017351
19 мая, ср
ср1901:00+5зюз311965 0.0 1017258
04:00+5зюз4129695 0.0 1017312
07:00+8з61390100 0.2 1018720
10:00+11з798476 0.4 1019864
13:00+12з6983100 1.4 10201107
16:00+14зсз687719 1.2 10201272
19:00+12зсз598464 2.1 1021642
22:00+8з3794100 0.1 1023123